Location: Brachbach
(49.1847°N, 9.7240°E)
Time: 01:54:16
(UTC+00:00)

ARIANE 6 FM1 Upper Stage - Pass Details

Date: 28 January 2026
Orbit: 522 x 609 km, 62.0° (Epoch: 13 February)

Event Time Altitude Azimuth Distance (km) Brightness Sun altitude
Rises 19:13:29 0° 280° (W) 2,684 7.3 -29.7°
Reaches altitude 10° 19:16:22 10° 302° (WNW) 1,783 6.0 -30.2°
Enters shadow 19:18:05 16° 326° (NW) 1,457 5.2 -30.4°
